• In Hungary
  • List of Countries
  • For 7 days
  • Water Temperature
  • Satellite Maps
  • Weather Map
  • News
  • Weather Widgets
  • user-avatar
    Login

    Hourly Weather Izbihino

    Today, 25 April, Wednesday

    Time Temperature Precipitation Wind Pressure Humidity
    00:00 +6°C° 0 mm 2 mps 735 mmHg 91%
    01:00 +5°C° 0 mm 2 mps 735 mmHg 93%
    02:00 +6°C° 0 mm 1 mps 734 mmHg 96%
    03:00 +5°C° 0.1 mm 2 mps 734 mmHg 96%
    04:00 +5°C° 0.1 mm 2 mps 734 mmHg 96%
    05:00 +5°C° 0.1 mm 2 mps 734 mmHg 96%
    06:00 +6°C° 0 mm 2 mps 734 mmHg 91%
    07:00 +8°C° 0 mm 3 mps 734 mmHg 86%
    08:00 +9°C° 0 mm 3 mps 733 mmHg 80%
    09:00 +10°C° 0.3 mm 3 mps 733 mmHg 77%
    10:00 +10°C° 0.3 mm 4 mps 733 mmHg 74%
    11:00 +10°C° 0.3 mm 4 mps 733 mmHg 71%
    12:00 +11°C° 0.2 mm 4 mps 733 mmHg 68%
    13:00 +12°C° 0.2 mm 4 mps 732 mmHg 65%
    14:00 +12°C° 0.2 mm 5 mps 732 mmHg 62%
    15:00 +12°C° 0.1 mm 4 mps 732 mmHg 61%
    16:00 +12°C° 0.1 mm 4 mps 732 mmHg 60%
    17:00 +12°C° 0.1 mm 4 mps 732 mmHg 60%
    18:00 +10°C° 0 mm 3 mps 732 mmHg 66%
    19:00 +9°C° 0 mm 2 mps 732 mmHg 73%
    20:00 +7°C° 0 mm 2 mps 732 mmHg 80%
    21:00 +7°C° 0 mm 2 mps 732 mmHg 82%
    22:00 +6°C° 0 mm 2 mps 731 mmHg 83%
    23:00 +6°C° 0 mm 2 mps 731 mmHg 85%

    Tomorrow, 26 April, Thursday

    Time Temperature Precipitation Wind Pressure Humidity
    00:00 +6°C° 0 mm 2 mps 731 mmHg 86%
    01:00 +5°C° 0 mm 2 mps 731 mmHg 86%
    02:00 +5°C° 0 mm 2 mps 730 mmHg 86%
    03:00 +5°C° 0.3 mm 2 mps 730 mmHg 88%
    04:00 +5°C° 0.3 mm 2 mps 729 mmHg 90%
    05:00 +5°C° 0.3 mm 2 mps 728 mmHg 91%
    06:00 +6°C° 1.3 mm 2 mps 728 mmHg 92%
    07:00 +6°C° 1.3 mm 2 mps 727 mmHg 93%
    08:00 +6°C° 1.3 mm 2 mps 727 mmHg 93%
    09:00 +7°C° 1.2 mm 2 mps 727 mmHg 92%
    10:00 +7°C° 1.2 mm 2 mps 727 mmHg 90%
    11:00 +8°C° 1.2 mm 3 mps 727 mmHg 89%
    12:00 +7°C° 0.3 mm 4 mps 728 mmHg 87%
    13:00 +7°C° 0.3 mm 5 mps 728 mmHg 84%
    14:00 +8°C° 0.3 mm 6 mps 729 mmHg 82%
    15:00 +8°C° 0.1 mm 6 mps 729 mmHg 80%
    16:00 +7°C° 0.1 mm 6 mps 730 mmHg 78%
    17:00 +7°C° 0.1 mm 6 mps 731 mmHg 75%
    18:00 +7°C° 0 mm 5 mps 731 mmHg 79%
    19:00 +6°C° 0 mm 4 mps 732 mmHg 82%
    20:00 +5°C° 0 mm 3 mps 733 mmHg 85%
    21:00 +5°C° 0 mm 4 mps 734 mmHg 86%
    22:00 +4°C° 0 mm 4 mps 734 mmHg 86%
    23:00 +4°C° 0 mm 4 mps 735 mmHg 86%

    Day after tomorrow, 27 April, Friday

    Time Temperature Precipitation Wind Pressure Humidity
    00:00 +4°C° 0 mm 3 mps 735 mmHg 88%
    01:00 +3°C° 0 mm 3 mps 735 mmHg 90%
    02:00 +3°C° 0 mm 3 mps 735 mmHg 92%
    03:00 +3°C° 0 mm 3 mps 736 mmHg 93%
    04:00 +3°C° 0 mm 3 mps 736 mmHg 94%
    05:00 +2°C° 0 mm 3 mps 736 mmHg 95%
    06:00 +4°C° 0 mm 3 mps 737 mmHg 89%
    07:00 +5°C° 0 mm 3 mps 737 mmHg 84%
    08:00 +8°C° 0 mm 3 mps 738 mmHg 78%
    09:00 +8°C° 0.1 mm 4 mps 738 mmHg 72%
    10:00 +10°C° 0.1 mm 4 mps 738 mmHg 65%
    11:00 +11°C° 0.1 mm 4 mps 738 mmHg 59%
    12:00 +12°C° 0.1 mm 4 mps 738 mmHg 55%
    13:00 +12°C° 0.1 mm 3 mps 738 mmHg 52%
    14:00 +13°C° 0.1 mm 3 mps 738 mmHg 48%
    15:00 +13°C° 0 mm 3 mps 738 mmHg 49%
    16:00 +13°C° 0 mm 2 mps 738 mmHg 50%
    17:00 +13°C° 0 mm 2 mps 738 mmHg 51%
    18:00 +10°C° 0 mm 2 mps 738 mmHg 58%
    19:00 +10°C° 0 mm 1 mps 738 mmHg 65%
    20:00 +8°C° 0 mm 1 mps 739 mmHg 71%
    21:00 +7°C° 0 mm 1 mps 739 mmHg 74%
    22:00 +7°C° 0 mm 1 mps 739 mmHg 76%
    23:00 +6°C° 0 mm 1 mps 740 mmHg 79%

    28 April, Saturday

    Time Temperature Precipitation Wind Pressure Humidity
    00:00 +6°C° 0 mm 1 mps 740 mmHg 82%
    01:00 +4°C° 0 mm 2 mps 740 mmHg 84%
    02:00 +4°C° 0 mm 2 mps 740 mmHg 87%
    03:00 +4°C° 0 mm 2 mps 741 mmHg 90%
    04:00 +4°C° 0 mm 2 mps 741 mmHg 92%
    05:00 +4°C° 0 mm 2 mps 741 mmHg 94%
    06:00 +5°C° 0 mm 2 mps 741 mmHg 86%
    07:00 +7°C° 0 mm 3 mps 742 mmHg 79%
    08:00 +9°C° 0 mm 3 mps 742 mmHg 71%
    09:00 +10°C° 0.1 mm 3 mps 742 mmHg 64%
    10:00 +11°C° 0.1 mm 4 mps 743 mmHg 58%
    11:00 +12°C° 0.1 mm 4 mps 743 mmHg 51%
    12:00 +12°C° 0.1 mm 4 mps 743 mmHg 50%
    13:00 +13°C° 0.1 mm 4 mps 743 mmHg 48%
    14:00 +13°C° 0.1 mm 5 mps 743 mmHg 47%
    15:00 +13°C° 0.1 mm 4 mps 743 mmHg 48%
    16:00 +12°C° 0.1 mm 4 mps 743 mmHg 49%
    17:00 +12°C° 0.1 mm 3 mps 743 mmHg 50%
    18:00 +11°C° 0 mm 3 mps 743 mmHg 57%
    19:00 +9°C° 0 mm 2 mps 743 mmHg 63%
    20:00 +8°C° 0 mm 1 mps 743 mmHg 69%
    21:00 +8°C° 0 mm 1 mps 743 mmHg 71%
    22:00 +6°C° 0 mm 2 mps 743 mmHg 73%
    23:00 +6°C° 0 mm 2 mps 743 mmHg 74%

    29 April, Sunday

    Time Temperature Precipitation Wind Pressure Humidity
    00:00 +6°C° 0 mm 2 mps 743 mmHg 75%
    01:00 +6°C° 0 mm 2 mps 742 mmHg 76%
    02:00 +5°C° 0 mm 3 mps 742 mmHg 76%
    03:00 +7°C° 1.7 mm 3 mps 741 mmHg 81%
    04:00 +7°C° 1.7 mm 3 mps 741 mmHg 86%
    05:00 +6°C° 1.7 mm 4 mps 740 mmHg 91%
    06:00 +7°C° 0.2 mm 4 mps 740 mmHg 90%
    07:00 +8°C° 0.2 mm 4 mps 740 mmHg 89%
    08:00 +10°C° 0.2 mm 4 mps 739 mmHg 88%
    09:00 +11°C° 0 mm 4 mps 740 mmHg 82%
    10:00 +12°C° 0 mm 5 mps 740 mmHg 76%
    11:00 +14°C° 0 mm 5 mps 740 mmHg 70%
    12:00 +13°C° 0 mm 5 mps 740 mmHg 68%
    13:00 +13°C° 0 mm 6 mps 740 mmHg 66%
    14:00 +13°C° 0 mm 6 mps 741 mmHg 63%
    15:00 +12°C° 0 mm 5 mps 741 mmHg 65%
    16:00 +12°C° 0 mm 5 mps 742 mmHg 66%
    17:00 +11°C° 0 mm 4 mps 742 mmHg 68%
    18:00 +10°C° 0 mm 4 mps 742 mmHg 71%
    19:00 +9°C° 0 mm 3 mps 743 mmHg 74%
    20:00 +8°C° 0 mm 2 mps 743 mmHg 77%
    21:00 +7°C° 0 mm 2 mps 743 mmHg 81%
    22:00 +7°C° 0 mm 2 mps 743 mmHg 85%
    23:00 +6°C° 0 mm 2 mps 743 mmHg 89%

    30 April, Monday

    Time Temperature Precipitation Wind Pressure Humidity
    00:00 +6°C° 0 mm 2 mps 743 mmHg 89%
    01:00 +5°C° 0 mm 3 mps 743 mmHg 89%
    02:00 +4°C° 0 mm 3 mps 744 mmHg 90%
    03:00 +4°C° 0 mm 3 mps 744 mmHg 89%
    04:00 +4°C° 0 mm 3 mps 744 mmHg 89%
    05:00 +4°C° 0 mm 3 mps 744 mmHg 88%
    06:00 +5°C° 0 mm 3 mps 744 mmHg 78%
    07:00 +8°C° 0 mm 3 mps 744 mmHg 67%
    08:00 +8°C° 0 mm 4 mps 745 mmHg 57%
    09:00 +11°C° 0 mm 4 mps 745 mmHg 52%
    10:00 +12°C° 0 mm 4 mps 745 mmHg 48%
    11:00 +13°C° 0 mm 3 mps 745 mmHg 43%
    12:00 +14°C° 0 mm 3 mps 745 mmHg 42%
    13:00 +16°C° 0 mm 3 mps 745 mmHg 40%
    14:00 +16°C° 0 mm 3 mps 745 mmHg 39%
    15:00 +16°C° 0 mm 2 mps 745 mmHg 40%
    16:00 +16°C° 0 mm 2 mps 745 mmHg 42%
    17:00 +16°C° 0 mm 1 mps 745 mmHg 43%
    18:00 +14°C° 0 mm 1 mps 745 mmHg 50%
    19:00 +12°C° 0 mm 1 mps 745 mmHg 56%
    20:00 +9°C° 0 mm 0 mps 745 mmHg 62%
    21:00 +9°C° 0 mm 1 mps 745 mmHg 63%
    22:00 +9°C° 0 mm 1 mps 745 mmHg 65%
    23:00 +9°C° 0 mm 1 mps 745 mmHg 67%
    Show more